STARLINK-30869, 58437

Orbit data source: Space-Track

STARLINK-30869, 58437 is a payload satellite owned by SpaceX/Seattle (US) in LEO that was launched on Tue, 28 Nov 2023 UTC via an FALCON 9 launch vehicle from the Air Force Eastern Test Range (AFETR). Payload-class satellites include a variety of spacecraft equipped with specific instruments for various scientific and technological missions. These include communications satellites like Starlink; space stations such as the ISS; scientific satellites like the Hubble; Earth observation satellites from companies like Planet Labs, Umbra, and HawkEye 360; GPS; miniature CubeSats for education and research; and military/defense satellites.

Loading next visibility...
Identifier
58437, 2023-183A
Orbit
LEO
Country
Flag of USUS
Related business
Manufacturer
SpaceX/Seattle
Mission
Operational Commercial Communications
Bus & Motor
STARLINK V2M, Unknown motor
Mass
730 kg wet, ~700 kg dry
Launch date (UTC)
2023-11-28 (3 years ago)
Launch vehicle
FALCON 9
Launch site
Air Force Eastern Test Range (AFETR)
Object type
Payload
Rocket body
Debris
Shape & HBR
Box + 2 Pan, 17.7 m
Radar Cross Section
33.884 m², Large (>1 m²)

Expand to show TLE details & history
Last TLE update: 2 days ago

TLE from 2 days ago
0 STARLINK-30869
1 58437U 23183A   26171.02137712  .00001329  00000-0  57837-4 0  9993
2 58437  43.0027 183.7924 0001661 277.7653  82.3010 15.27576418142388
Epoch: 2026-06-20T00:30Z
TLE epoch observation values (Epoch: 2026-06-20T00:30:46.983Z)
Latitude
-0.00001°
Longitude
-92.14536°
Altitude
482.683 km
Speed
7.626 km/s
True Right ascension
12h 15m 10s
True Declination
0° 00' 00"
Sunlit
Object was in daylight at epoch
Visualization orbit readout
Latitude
Unknown
Longitude
Unknown
Altitude
Unknown
Speed
Unknown
Apparent Right ascension
Unknown
Apparent Declination
Unknown
Sunlit
N/A
Visualization observer readout
Local Sidereal Time
21:27:55
Azimuth
Unknown
Elevation
Unknown
Doppler factor
Unknown
Orbital elements
Apogee altitude
486.145 km
Perigee altitude
483.865 km
Semi-major axis
6,863.142 km
Eccentricity
0.00017
Inclination
43.0027°
RAAN
183.7924°
Arg. of periapsis
277.7653°
True anomaly
82.31986°
Mean anomaly
82.301°
Eccentric anomaly
82.31043°
Mean motion
3.81732 °/min
Orbital period
94.31 mins
BSTAR
0.000057837
Loading maneuver chart data...
Computing Atmospheric mass density...
Loading historical data...
Loading historical data...
Loading historical data...
Loading historical data...
Loading historical data...
Loading historical data...
Loading historical data...

Documentation

Showing up to 5 results
|